ENY3491 KDFW-KBRO

Flight info

Callsign ENY3491
Flight time 1h 7m
Altitude 28000
Route NELYN6 HOARY CRP J25 BRO
Aircraft E75L/M-SDE3GILORVW/S

Departure

Time 2026-05-03 21:34
Airport Dallas Fort Worth International Airport (KDFW)

Arrival

Time 2026-05-03 22:41
Airport Brownsville South Padre Island International Airport (KBRO)
Time Latitude Longitude Altitude Speed Heading
2026-05-03 21:14 32.90731 -97.04442 594 ft 0 kts 189°
2026-05-03 21:25 32.90744 -97.04439 594 ft 4 kts 189°
2026-05-03 21:25 32.90766 -97.04435 594 ft 4 kts 190°
2026-05-03 21:26 32.90785 -97.04420 594 ft 4 kts 246°
2026-05-03 21:26 32.90794 -97.04394 594 ft 3 kts 249°
2026-05-03 21:26 32.90796 -97.04389 594 ft 0 kts 249°
2026-05-03 21:29 32.90796 -97.04390 594 ft 0 kts 249°
2026-05-03 21:29 32.90791 -97.04404 594 ft 4 kts 249°
2026-05-03 21:29 32.90786 -97.04449 594 ft 7 kts 280°
2026-05-03 21:30 32.90805 -97.04514 594 ft 9 kts 301°
2026-05-03 21:30 32.90822 -97.04536 594 ft 10 kts 322°
2026-05-03 21:30 32.90881 -97.04550 594 ft 11 kts 360°
2026-05-03 21:31 32.90907 -97.04577 595 ft 5 kts 282°
2026-05-03 21:31 32.90908 -97.04648 597 ft 13 kts 270°
2026-05-03 21:31 32.90908 -97.04683 598 ft 14 kts 270°
2026-05-03 21:31 32.90909 -97.04796 602 ft 13 kts 270°
2026-05-03 21:32 32.90930 -97.04877 615 ft 9 kts 339°
2026-05-03 21:32 32.91033 -97.04880 613 ft 21 kts
2026-05-03 21:32 32.91188 -97.04879 615 ft 24 kts 360°
2026-05-03 21:32 32.91342 -97.04878 612 ft 16 kts
2026-05-03 21:33 32.91414 -97.04908 612 ft 10 kts 296°
2026-05-03 21:33 32.91420 -97.04981 616 ft 10 kts 270°
2026-05-03 21:33 32.91410 -97.05067 614 ft 8 kts 221°
2026-05-03 21:33 32.91375 -97.05075 614 ft 5 kts 181°
2026-05-03 21:34 32.91252 -97.05076 616 ft 53 kts 180°
2026-05-03 21:34 32.90560 -97.05079 631 ft 141 kts 181°
2026-05-03 21:34 32.89539 -97.05089 1588 ft 144 kts 181°
2026-05-03 21:34 32.88469 -97.05096 2366 ft 162 kts 182°
2026-05-03 21:35 32.87305 -97.05129 3138 ft 177 kts 185°
2026-05-03 21:35 32.86014 -97.05178 3870 ft 201 kts 184°
2026-05-03 21:35 32.84530 -97.05247 4666 ft 222 kts 183°
2026-05-03 21:35 32.82938 -97.05283 5453 ft 241 kts 183°
2026-05-03 21:36 32.81236 -97.05299 6460 ft 248 kts 182°
2026-05-03 21:36 32.79504 -97.05316 7424 ft 253 kts 182°
2026-05-03 21:36 32.77759 -97.05340 8387 ft 256 kts 183°
2026-05-03 21:36 32.75952 -97.05366 9269 ft 262 kts 183°
2026-05-03 21:37 32.74089 -97.05405 10007 ft 271 kts 183°
2026-05-03 21:37 32.72188 -97.05444 10802 ft 276 kts 182°
2026-05-03 21:37 32.70259 -97.05580 11437 ft 286 kts 191°
2026-05-03 21:37 32.68244 -97.06121 11727 ft 309 kts 196°
2026-05-03 21:38 32.66113 -97.06841 12115 ft 327 kts 197°
2026-05-03 21:38 32.63862 -97.07589 12530 ft 343 kts 197°
2026-05-03 21:38 32.61530 -97.08330 13198 ft 351 kts 196°
2026-05-03 21:38 32.59143 -97.09074 13960 ft 355 kts 197°
2026-05-03 21:39 32.56754 -97.09828 14710 ft 359 kts 196°
2026-05-03 21:39 32.54323 -97.10598 15456 ft 364 kts 198°
2026-05-03 21:39 32.51887 -97.11366 16187 ft 368 kts 198°
2026-05-03 21:39 32.49416 -97.12135 16884 ft 373 kts 197°
2026-05-03 21:40 32.46903 -97.12915 17605 ft 378 kts 197°
2026-05-03 21:40 32.44377 -97.13701 18308 ft 383 kts 198°
2026-05-03 21:40 32.41792 -97.14504 18952 ft 388 kts 198°
2026-05-03 21:40 32.39229 -97.15300 19571 ft 393 kts 198°
2026-05-03 21:41 32.36565 -97.16127 20265 ft 397 kts 198°
2026-05-03 21:41 32.33893 -97.16956 20990 ft 401 kts 199°
2026-05-03 21:41 32.31191 -97.17794 21666 ft 406 kts 199°
2026-05-03 21:41 32.28433 -97.18598 22295 ft 413 kts 195°
2026-05-03 21:42 32.25634 -97.19087 22886 ft 420 kts 192°
2026-05-03 21:42 32.22710 -97.19462 23477 ft 425 kts 191°
2026-05-03 21:42 32.19787 -97.19825 24001 ft 429 kts 192°
2026-05-03 21:42 32.16818 -97.20207 24508 ft 433 kts 192°
2026-05-03 21:43 32.13844 -97.20599 24997 ft 436 kts 193°
2026-05-03 21:43 32.10831 -97.21001 25500 ft 440 kts 193°
2026-05-03 21:43 32.07800 -97.21405 26101 ft 440 kts 193°
2026-05-03 21:43 32.04838 -97.21799 26775 ft 439 kts 194°
2026-05-03 21:44 32.01811 -97.22202 27421 ft 438 kts 194°
2026-05-03 21:44 31.98778 -97.22608 27940 ft 440 kts 194°
2026-05-03 21:44 31.95728 -97.23016 28081 ft 441 kts 194°
2026-05-03 21:44 31.92679 -97.23419 28116 ft 441 kts 194°
2026-05-03 21:45 31.86562 -97.24236 28113 ft 449 kts 194°
2026-05-03 21:45 31.80265 -97.25075 28169 ft 459 kts 194°
2026-05-03 21:46 31.73941 -97.25910 28127 ft 461 kts 194°
2026-05-03 21:46 31.67557 -97.26752 28127 ft 461 kts 194°
2026-05-03 21:47 31.61212 -97.27226 28148 ft 469 kts 187°
2026-05-03 21:47 31.54729 -97.27239 28158 ft 465 kts 188°
2026-05-03 21:48 31.48273 -97.27369 28156 ft 465 kts 189°
2026-05-03 21:48 31.41805 -97.27520 28160 ft 465 kts 189°
2026-05-03 21:49 31.35461 -97.27671 28154 ft 465 kts 189°
2026-05-03 21:49 31.28984 -97.27823 28168 ft 461 kts 189°
2026-05-03 21:50 31.22609 -97.27978 28165 ft 462 kts 189°
2026-05-03 21:50 31.16178 -97.28131 28163 ft 462 kts 189°
2026-05-03 21:51 31.09761 -97.28284 28165 ft 462 kts 189°
2026-05-03 21:51 31.03398 -97.28435 28138 ft 462 kts 189°
2026-05-03 21:52 30.97017 -97.28586 28165 ft 463 kts 189°
2026-05-03 21:52 30.90575 -97.28740 28158 ft 463 kts 190°
2026-05-03 21:53 30.84127 -97.28893 28159 ft 463 kts 189°
2026-05-03 21:53 30.77681 -97.29046 28160 ft 463 kts 189°
2026-05-03 21:54 30.71221 -97.29201 28147 ft 466 kts 190°
2026-05-03 21:54 30.64737 -97.29352 28161 ft 465 kts 190°
2026-05-03 21:55 30.58260 -97.29505 28157 ft 465 kts 190°
2026-05-03 21:55 30.51788 -97.29658 28157 ft 466 kts 190°
2026-05-03 21:56 30.45356 -97.29807 28158 ft 466 kts 190°
2026-05-03 21:56 30.38905 -97.29961 28152 ft 466 kts 190°
2026-05-03 21:57 30.32403 -97.30112 28149 ft 466 kts 190°
2026-05-03 21:57 30.25975 -97.30263 28135 ft 465 kts 190°
2026-05-03 21:58 30.19490 -97.30415 28118 ft 466 kts 190°
2026-05-03 21:58 30.13106 -97.30560 28143 ft 458 kts 191°
2026-05-03 21:59 30.06792 -97.30873 28151 ft 455 kts 193°
2026-05-03 21:59 30.00476 -97.31425 28125 ft 455 kts 194°
2026-05-03 22:00 29.94162 -97.32038 28133 ft 455 kts 194°
2026-05-03 22:00 29.87858 -97.32627 28143 ft 454 kts 194°
2026-05-03 22:01 29.82632 -97.33115 28144 ft 453 kts 194°
2026-05-03 22:01 29.76344 -97.33698 28147 ft 453 kts 194°
2026-05-03 22:02 29.70055 -97.34280 28148 ft 453 kts 194°
2026-05-03 22:02 29.63767 -97.34860 28153 ft 453 kts 194°
2026-05-03 22:03 29.57466 -97.35430 28142 ft 455 kts 194°
2026-05-03 22:03 29.51175 -97.35999 28148 ft 455 kts 194°
2026-05-03 22:04 29.44873 -97.36575 28144 ft 455 kts 194°
2026-05-03 22:04 29.38645 -97.37136 28109 ft 437 kts 194°
2026-05-03 22:05 29.32616 -97.37693 28124 ft 433 kts 194°
2026-05-03 22:05 29.26650 -97.38243 28142 ft 433 kts 194°
2026-05-03 22:06 29.20681 -97.38792 28142 ft 432 kts 194°
2026-05-03 22:06 29.14713 -97.39339 28141 ft 433 kts 194°
2026-05-03 22:07 29.08722 -97.39887 28135 ft 432 kts 194°
2026-05-03 22:07 29.02806 -97.40428 28150 ft 431 kts 194°
2026-05-03 22:08 28.96816 -97.40974 28140 ft 432 kts 194°
2026-05-03 22:08 28.90860 -97.41516 28138 ft 432 kts 194°
2026-05-03 22:09 28.84861 -97.42062 28142 ft 432 kts 194°
2026-05-03 22:10 28.75927 -97.42893 28147 ft 432 kts 194°
2026-05-03 22:10 28.69971 -97.43439 28150 ft 430 kts 194°
2026-05-03 22:11 28.64002 -97.43982 28148 ft 430 kts 194°
2026-05-03 22:11 28.58031 -97.44509 28149 ft 430 kts 194°
2026-05-03 22:12 28.52094 -97.45035 28152 ft 430 kts 194°
2026-05-03 22:12 28.46120 -97.45570 28146 ft 430 kts 194°
2026-05-03 22:13 28.40144 -97.46132 28230 ft 429 kts 194°
2026-05-03 22:13 28.34194 -97.46650 28115 ft 432 kts 193°
2026-05-03 22:14 28.28245 -97.47167 28168 ft 432 kts 194°
2026-05-03 22:14 28.22244 -97.47697 28162 ft 432 kts 194°
2026-05-03 22:15 28.16255 -97.48231 28132 ft 432 kts 193°
2026-05-03 22:15 28.10282 -97.48764 28171 ft 432 kts 194°
2026-05-03 22:16 28.04318 -97.49296 28174 ft 432 kts 194°
2026-05-03 22:16 27.98309 -97.49832 28169 ft 432 kts 194°
2026-05-03 22:17 27.92310 -97.50367 28145 ft 432 kts 194°
2026-05-03 22:17 27.86317 -97.50902 28130 ft 432 kts 194°
2026-05-03 22:18 27.80302 -97.51438 28144 ft 434 kts 193°
2026-05-03 22:18 27.74255 -97.51980 27316 ft 441 kts 193°
2026-05-03 22:18 27.71242 -97.52210 26901 ft 436 kts 192°
2026-05-03 22:19 27.68174 -97.52413 26550 ft 436 kts 192°
2026-05-03 22:19 27.65139 -97.52641 26196 ft 437 kts 193°
2026-05-03 22:19 27.62139 -97.52883 25848 ft 438 kts 193°
2026-05-03 22:19 27.59099 -97.53135 25501 ft 439 kts 193°
2026-05-03 22:20 27.56052 -97.53392 25161 ft 437 kts 193°
2026-05-03 22:20 27.53025 -97.53651 24817 ft 435 kts 193°
2026-05-03 22:20 27.50073 -97.53909 24478 ft 433 kts 193°
2026-05-03 22:20 27.47081 -97.54171 24144 ft 431 kts 193°
2026-05-03 22:21 27.44113 -97.54434 23813 ft 429 kts 193°
2026-05-03 22:21 27.41180 -97.54694 23456 ft 427 kts 193°
2026-05-03 22:21 27.38235 -97.54956 23064 ft 424 kts 192°
2026-05-03 22:21 27.35317 -97.55215 22683 ft 422 kts 192°
2026-05-03 22:22 27.32474 -97.55469 22306 ft 419 kts 192°
2026-05-03 22:22 27.29597 -97.55724 21932 ft 417 kts 192°
2026-05-03 22:22 27.26712 -97.55981 21536 ft 415 kts 192°
2026-05-03 22:22 27.23900 -97.56230 21176 ft 411 kts 192°
2026-05-03 22:23 27.21055 -97.56483 20810 ft 409 kts 192°
2026-05-03 22:23 27.18270 -97.56730 20457 ft 407 kts 191°
2026-05-03 22:23 27.15412 -97.56987 20096 ft 405 kts 192°
2026-05-03 22:23 27.12668 -97.57281 19751 ft 402 kts 192°
2026-05-03 22:24 27.09932 -97.57578 19411 ft 401 kts 192°
2026-05-03 22:24 27.07169 -97.57862 19071 ft 399 kts 191°
2026-05-03 22:24 27.04441 -97.58124 18740 ft 398 kts 191°
2026-05-03 22:24 27.01711 -97.58373 18399 ft 396 kts 190°
2026-05-03 22:25 26.98992 -97.58614 18005 ft 393 kts 190°
2026-05-03 22:25 26.96285 -97.58853 17604 ft 390 kts 190°
2026-05-03 22:25 26.93632 -97.59086 17231 ft 386 kts 189°
2026-05-03 22:25 26.90964 -97.59320 16861 ft 383 kts 189°
2026-05-03 22:26 26.88311 -97.59553 16482 ft 380 kts 189°
2026-05-03 22:26 26.85752 -97.59777 16124 ft 377 kts 189°
2026-05-03 22:26 26.83162 -97.60003 15762 ft 375 kts 189°
2026-05-03 22:26 26.80572 -97.60229 15394 ft 372 kts 189°
2026-05-03 22:27 26.77999 -97.60454 15038 ft 369 kts 189°
2026-05-03 22:27 26.75489 -97.60670 14681 ft 354 kts 189°
2026-05-03 22:27 26.73084 -97.60878 14329 ft 340 kts 189°
2026-05-03 22:27 26.70800 -97.61075 13981 ft 328 kts 189°
2026-05-03 22:28 26.68562 -97.61270 13593 ft 318 kts 189°
2026-05-03 22:28 26.66359 -97.61463 13187 ft 310 kts 188°
2026-05-03 22:28 26.64227 -97.61649 12814 ft 305 kts 188°
2026-05-03 22:28 26.62130 -97.61832 12445 ft 302 kts 188°
2026-05-03 22:29 26.60074 -97.62012 12081 ft 301 kts 187°
2026-05-03 22:29 26.58028 -97.62191 11723 ft 300 kts 187°
2026-05-03 22:29 26.55950 -97.62373 11366 ft 299 kts 188°
2026-05-03 22:29 26.53885 -97.62554 11010 ft 297 kts 187°
2026-05-03 22:30 26.51828 -97.62732 10652 ft 295 kts 186°
2026-05-03 22:30 26.49806 -97.62906 10306 ft 292 kts 187°
2026-05-03 22:30 26.47812 -97.63078 9957 ft 289 kts 186°
2026-05-03 22:30 26.45875 -97.63248 9582 ft 289 kts 187°
2026-05-03 22:31 26.43923 -97.63417 9211 ft 286 kts 187°
2026-05-03 22:31 26.41946 -97.63588 8835 ft 284 kts 186°
2026-05-03 22:31 26.39985 -97.63762 8464 ft 282 kts 186°
2026-05-03 22:31 26.38044 -97.63942 8103 ft 280 kts 186°
2026-05-03 22:32 26.36108 -97.64120 7738 ft 277 kts 186°
2026-05-03 22:32 26.34205 -97.64293 7378 ft 272 kts 185°
2026-05-03 22:32 26.32320 -97.64460 7019 ft 271 kts 185°
2026-05-03 22:32 26.30451 -97.64623 6667 ft 269 kts 185°
2026-05-03 22:33 26.28625 -97.64782 6301 ft 266 kts 185°
2026-05-03 22:33 26.26825 -97.64938 5934 ft 265 kts 185°
2026-05-03 22:33 26.24980 -97.65099 5561 ft 265 kts 184°
2026-05-03 22:33 26.23173 -97.65256 5190 ft 261 kts 184°
2026-05-03 22:34 26.21412 -97.65168 4814 ft 255 kts 165°
2026-05-03 22:34 26.19741 -97.64574 4436 ft 251 kts 161°
2026-05-03 22:34 26.18106 -97.63915 4062 ft 248 kts 158°
2026-05-03 22:34 26.16543 -97.63258 3698 ft 247 kts 157°
2026-05-03 22:35 26.14935 -97.62592 3336 ft 246 kts 156°
2026-05-03 22:35 26.13339 -97.61931 2957 ft 244 kts 156°
2026-05-03 22:35 26.11751 -97.61272 2588 ft 242 kts 155°
2026-05-03 22:35 26.10173 -97.60615 2219 ft 242 kts 156°
2026-05-03 22:36 26.08622 -97.59974 2066 ft 229 kts 155°
2026-05-03 22:36 26.07179 -97.59377 2129 ft 217 kts 154°
2026-05-03 22:36 26.05881 -97.58774 2206 ft 195 kts 147°
2026-05-03 22:36 26.04876 -97.57884 2409 ft 179 kts 132°
2026-05-03 22:37 26.03938 -97.56871 2150 ft 194 kts 134°
2026-05-03 22:37 26.02963 -97.55858 1993 ft 189 kts 133°
2026-05-03 22:37 26.02071 -97.54928 1974 ft 179 kts 133°
2026-05-03 22:37 26.01183 -97.53988 1962 ft 179 kts 132°
2026-05-03 22:38 26.00297 -97.53020 1968 ft 184 kts 131°
2026-05-03 22:38 25.99400 -97.52024 1972 ft 181 kts 133°
2026-05-03 22:38 25.98501 -97.51079 1996 ft 178 kts 134°
2026-05-03 22:38 25.97603 -97.50099 1796 ft 184 kts 131°
2026-05-03 22:39 25.96723 -97.49133 1600 ft 167 kts 131°
2026-05-03 22:39 25.95987 -97.48335 1338 ft 151 kts 131°
2026-05-03 22:39 25.95272 -97.47556 1049 ft 137 kts 130°
2026-05-03 22:39 25.94633 -97.46841 846 ft 126 kts 129°
2026-05-03 22:40 25.94007 -97.46129 716 ft 130 kts 131°
2026-05-03 22:40 25.93379 -97.45447 596 ft 130 kts 132°
2026-05-03 22:40 25.92761 -97.44774 427 ft 125 kts 131°
2026-05-03 22:40 25.92149 -97.44139 257 ft 117 kts 130°
2026-05-03 22:41 25.91568 -97.43439 132 ft 127 kts 133°
2026-05-03 22:41 25.90963 -97.42783 30 ft 113 kts 134°
2026-05-03 22:41 25.90502 -97.42281 27 ft 71 kts 136°
2026-05-03 22:41 25.90238 -97.41993 27 ft 41 kts 135°
2026-05-03 22:42 25.90066 -97.41807 28 ft 38 kts 135°